Location: Ffald-y-Brenin
(52.0833°N, 4.0000°W)
Time: 02:54:25
(UTC+00:00)

Cosmos 2344 - Pass Details

Date: 18 February 2020
Orbit: 1253 x 2989 km, 63.3° (Epoch: 05 April)

Event Time Altitude Azimuth Distance (km) Brightness Sun altitude
Exits shadow 02:59:34 45° 348° (NNW) 1,854 4.4 -39.8°
Drops below altitude 10° 03:08:23 10° 56° (ENE) 3,990 6.9 -38.7°
Sets 03:12:11 0° 63° (ENE) 5,224 7.7 -38.2°
